User: anonymous   Login
Location: Unspecified
(0.0000°N, 0.0000°E)
Time: 07:52:43
(UTC+00:00)
Language:

AGILE - Orbit

View from above orbital plane
View from above orbital plane
View from above satellite
View from above satellite

Ground track
Ground track

The orbit data is extracted from the following two-line orbital elements,

1 31135U 07013A   16342.09411724  .00002916  00000-0  61893-4 0  9997
2 31135   2.4665 163.9941 0013610 252.0865 107.7704 15.29017114534256
Epoch (UTC): 07 December 2016 02:15:31
Eccentricity: 0.0013610
inclination: 2.4665°
perigee height: 469 km
apogee height: 488 km
right ascension of ascending node: 163.9941°
argument of perigee: 252.0865°
revolutions per day: 15.29017114
mean anomaly at epoch: 107.7704°
orbit number at epoch: 53425

The dashed part of the orbit path shows where the satellite is in the earth's shadow,  

DLR